Stations météo

réclame
Mon MeteoGroup
Shoreham Airport, Grande-Bretagne (3876): Température de l'air & dewpoint: 11.12.2018 05:00:00 - 17.12.2018 05:00:00 (GMT)Shoreham Airport, Grande-Bretagne (3876): Vitesse du vent & gusts: 11.12.2018 05:00:00 - 17.12.2018 05:00:00 (GMT)Shoreham Airport, Grande-Bretagne (3876): Direction du vent: 11.12.2018 05:00:00 - 17.12.2018 05:00:00 (GMT)Shoreham Airport, Grande-Bretagne (3876): reduced air pressure: 11.12.2018 05:00:00 - 17.12.2018 05:00:00 (GMT)Shoreham Airport, Grande-Bretagne (3876): visibility: 11.12.2018 05:00:00 - 17.12.2018 05:00:00 (GMT)Shoreham Airport, Grande-Bretagne (3876): Quantités de précipitations: 11.12.2018 05:00:00 - 17.12.2018 05:00:00 (GMT)
Date & Time tt [°C] td [°C] ff [km/h] ff [knt] fx [km/h] fx [knt] dd ppp [hPa] vv [km] rr [mm]
17.12.2018 05:00:00 4,3 3,7 16 9 - - WSW 1014,5 - 0,0
17.12.2018 04:00:00 4,8 3,9 13 7 - - W 1013,4 - 0,0
17.12.2018 03:00:00 4,1 3,3 13 7 - - W 1012,7 - 0,0
17.12.2018 02:00:00 4,4 3,6 15 8 - - WSW 1011,5 - 0,0
17.12.2018 01:00:00 5,2 4,4 11 6 - - W 1010,2 - 0,0
17.12.2018 00:00:00 5,6 4,7 13 7 - - WSW 1009,1 - 0,0
16.12.2018 23:00:00 7,2 5,9 15 8 - - W 1008,4 - 0,0
16.12.2018 22:00:00 8,2 6,7 18 10 - - WSW 1007,1 - 0,6
16.12.2018 21:00:00 9,1 7,9 22 12 - - SSW 1006,1 - 0,2
16.12.2018 20:00:00 8,9 7,6 26 14 - - SSW 1005,7 - 1,0
16.12.2018 19:00:00 8,7 7,4 24 13 52 28 S 1005,7 6 2,2
16.12.2018 18:00:00 8,6 7,7 24 13 48 26 SSW 1005,7 6 3,0
16.12.2018 17:00:00 9,6 8,2 26 14 - - S 1005,5 9 0,0
16.12.2018 16:00:00 9,6 8,3 21 11 - - S 1006,1 9 0,0
16.12.2018 15:00:00 9,6 8,1 18 10 - - S 1006,4 9 0,0
16.12.2018 14:00:00 9,8 8,3 15 8 - - S 1006,5 10 0,0
16.12.2018 13:00:00 9,3 6,3 9 5 - - S 1007,0 10 0,0
16.12.2018 12:00:00 9,2 8,5 9 5 - - SSW 1007,6 10 0,0
16.12.2018 11:00:00 7,2 7,1 2 1 - - NNE 1008,1 10 0,0
16.12.2018 10:00:00 2,8 2,6 2 1 - - E 1008,2 10 0,0
16.12.2018 09:00:00 0,3 0,0 4 2 - - N 1007,7 10 0,0
16.12.2018 08:00:00 -0,2 -0,5 4 2 - - ESE 1007,3 - 0,0
16.12.2018 07:00:00 -0,1 -0,6 4 2 - - E 1007,5 - 0,0
16.12.2018 06:00:00 0,2 -0,3 4 2 - - NNW 1007,2 - 0,0
16.12.2018 05:00:00 0,4 -0,3 4 2 - - WSW 1006,8 - 0,0
16.12.2018 04:00:00 2,6 1,8 0 0 - - N 1006,6 - 0,0
16.12.2018 03:00:00 5,3 4,1 4 2 - - WSW 1006,2 - 0,0
16.12.2018 02:00:00 6,6 4,8 13 7 - - WSW 1006,0 - 0,0
16.12.2018 01:00:00 8,1 5,4 21 11 - - WSW 1005,5 - 0,0
16.12.2018 00:00:00 8,2 5,5 18 10 - - WSW 1005,0 - 0,0
15.12.2018 23:00:00 7,6 5,2 11 6 - - WSW 1005,0 - 0,0
15.12.2018 22:00:00 9,1 6,5 22 12 - - WSW 1004,3 - 0,0
15.12.2018 21:00:00 10,0 8,3 21 11 - - SW 1003,3 - 0,0
15.12.2018 20:00:00 9,4 8,8 31 17 55 30 SSW 1003,4 5 0,2
15.12.2018 19:00:00 8,3 7,7 39 21 57 31 S 1003,2 4,0 0,8
15.12.2018 18:00:00 6,8 6,2 31 17 52 28 SE 1004,6 3,5 3,0
15.12.2018 17:00:00 6,2 5,6 29 16 52 28 SE 1005,8 3,5 4,6
15.12.2018 16:00:00 5,6 5,0 37 20 55 30 SE 1006,9 3,0 3,8
15.12.2018 15:00:00 5,6 4,8 34 18 55 30 SE 1008,7 3,2 2,0
15.12.2018 14:00:00 4,9 4,2 31 17 54 29 SE 1010,0 3,0 1,4
15.12.2018 13:00:00 4,4 3,2 28 15 55 30 SE 1011,4 3,5 0,4
15.12.2018 12:00:00 4,1 2,4 31 17 50 27 SE 1012,8 5 0,4
15.12.2018 11:00:00 4,0 1,4 31 17 50 27 SE 1015,0 7 0,2
15.12.2018 10:00:00 3,5 0,9 26 14 50 27 SE 1016,3 7 0,0
15.12.2018 09:00:00 3,9 -0,2 28 15 48 26 SE 1017,3 7 0,0
15.12.2018 08:00:00 3,8 -0,6 29 16 46 25 SE 1017,7 - 0,0
15.12.2018 07:00:00 3,6 -1,4 26 14 - - SE 1018,3 - 0,0
15.12.2018 06:00:00 3,7 -1,0 28 15 - - SE 1018,8 - 0,0
15.12.2018 05:00:00 3,6 -1,6 24 13 - - SE 1019,6 - 0,0
15.12.2018 04:00:00 3,6 -1,6 22 12 - - SE 1020,2 - 0,0
15.12.2018 03:00:00 3,8 -1,2 22 12 - - SE 1020,9 - 0,0
15.12.2018 02:00:00 3,7 -1,9 18 10 - - SE 1021,4 - 0,0
15.12.2018 01:00:00 3,8 -1,7 18 10 - - SE 1021,6 - 0,0
15.12.2018 00:00:00 3,9 -1,5 16 9 - - SE 1021,8 - 0,0
14.12.2018 23:00:00 3,9 -2,2 15 8 - - SE 1022,4 - 0,0
14.12.2018 22:00:00 2,8 -1,9 15 8 - - E 1022,8 - 0,0
14.12.2018 21:00:00 2,5 -2,6 11 6 - - NE 1023,6 - 0,0
14.12.2018 20:00:00 2,0 -2,1 13 7 - - ENE 1023,1 10 0,0
14.12.2018 19:00:00 0,7 -2,7 13 7 - - NE 1023,4 10 0,0
14.12.2018 18:00:00 1,5 -2,1 15 8 - - ENE 1023,2 10 0,0
14.12.2018 17:00:00 0,1 -2,7 9 5 - - NE 1023,6 9 0,0
14.12.2018 16:00:00 1,2 -2,1 9 5 - - NE 1023,3 10 0,0
14.12.2018 15:00:00 2,8 -2,2 16 9 - - E 1022,7 10 0,0
14.12.2018 14:00:00 3,8 -0,9 11 6 - - E 1023,0 10 0,0
14.12.2018 13:00:00 3,5 -0,2 11 6 - - NNE 1022,9 10 0,0
14.12.2018 12:00:00 1,1 -1,6 15 8 - - N 1023,3 10 0,0
14.12.2018 11:00:00 0,7 -2,1 16 9 - - NNW 1023,3 10 0,0
14.12.2018 10:00:00 2,8 -1,9 13 7 - - ENE 1022,2 10 0,0
14.12.2018 09:00:00 1,8 -2,3 15 8 - - E 1021,5 10 0,0
14.12.2018 08:00:00 0,1 -3,9 9 5 - - NNE 1022,1 10 0,0
14.12.2018 07:00:00 0,6 -3,3 13 7 - - NE 1022,2 - 0,0
14.12.2018 06:00:00 0,9 -3,0 16 9 - - NE 1021,9 - 0,0
14.12.2018 05:00:00 1,3 -2,6 16 9 - - NNE 1021,5 - 0,0
14.12.2018 04:00:00 0,7 -2,3 18 10 - - NNE 1021,3 - 0,0
14.12.2018 03:00:00 0,5 -2,1 16 9 - - NE 1020,9 - 0,0
14.12.2018 02:00:00 0,3 -2,1 16 9 - - NE 1020,5 - 0,0
14.12.2018 01:00:00 0,5 -1,9 16 9 - - NE 1020,2 - 0,0
14.12.2018 00:00:00 0,6 -1,8 15 8 - - NE 1020,1 - 0,0
13.12.2018 23:00:00 1,1 -1,5 15 8 - - NE 1019,7 - 0,0
13.12.2018 22:00:00 1,4 -1,0 16 9 - - NE 1019,5 - 0,0
13.12.2018 21:00:00 1,4 -1,1 16 9 - - NE 1019,1 - 0,0
13.12.2018 20:00:00 1,4 -1,3 15 8 - - NE 1018,8 10 0,0
13.12.2018 19:00:00 1,5 -1,4 16 9 - - NE 1018,3 10 0,0
13.12.2018 18:00:00 2,2 -1,7 18 10 - - NE 1017,6 - 0,0
13.12.2018 17:00:00 2,2 -1,7 16 9 - - NE 1016,9 10 0,0
13.12.2018 16:00:00 2,7 -0,8 16 9 - - NE 1016,9 10 0,0
13.12.2018 15:00:00 4,4 -0,5 21 11 - - E 1016,4 10 0,0
13.12.2018 14:00:00 5,2 -0,1 21 11 - - E 1016,2 10 0,0
13.12.2018 13:00:00 5,4 0,1 28 15 - - E 1016,1 10 0,0
13.12.2018 12:00:00 5,6 0,2 29 16 - - E 1016,1 10 0,0
13.12.2018 11:00:00 5,7 0,3 28 15 54 29 E 1016,2 10 0,0
13.12.2018 10:00:00 5,7 0,4 34 18 55 30 ESE 1016,1 10 0,0
13.12.2018 09:00:00 5,6 0,5 34 18 55 30 ESE 1015,8 10 0,0
13.12.2018 08:00:00 5,5 1,4 35 19 59 32 ESE 1015,6 10 0,0
13.12.2018 07:00:00 5,5 0,7 39 21 57 31 ESE 1015,0 - 0,0
13.12.2018 06:00:00 5,7 0,4 41 22 57 31 ESE 1014,9 - 0,0
13.12.2018 05:00:00 5,8 -0,2 34 18 54 29 ESE 1015,1 - 0,0
13.12.2018 04:00:00 6,0 0,7 31 17 52 28 ESE 1015,9 - 0,0
13.12.2018 03:00:00 5,7 0,9 35 19 50 27 ESE 1016,5 - 0,0
13.12.2018 02:00:00 6,0 0,8 28 15 46 25 ESE 1016,8 - 0,0
13.12.2018 01:00:00 6,2 2,3 26 14 54 29 ESE 1017,4 - 0,0
13.12.2018 00:00:00 6,1 1,0 31 17 48 26 ESE 1017,6 - 0,0
12.12.2018 23:00:00 6,2 -0,5 31 17 48 26 ESE 1017,9 - 0,0
12.12.2018 22:00:00 6,1 -0,2 29 16 48 26 ESE 1018,5 - 0,0
12.12.2018 21:00:00 6,2 -0,3 29 16 52 28 ESE 1018,9 - 0,0
12.12.2018 20:00:00 6,3 -0,8 26 14 - - ESE 1019,5 - 0,0
12.12.2018 19:00:00 6,5 -0,9 24 13 - - ESE 1020,1 10 0,0
12.12.2018 18:00:00 6,5 -0,3 22 12 - - ESE 1020,4 10 0,0
12.12.2018 17:00:00 6,2 0,0 18 10 - - ESE 1020,5 10 0,0
12.12.2018 16:00:00 6,1 -0,1 26 14 46 25 SE 1020,8 10 0,0
12.12.2018 15:00:00 6,4 -0,1 26 14 - - ESE 1021,1 10 0,0
12.12.2018 14:00:00 6,9 0,7 26 14 - - ESE 1021,6 10 0,0
12.12.2018 13:00:00 7,5 2,0 22 12 - - ESE 1022,3 10 0,0
12.12.2018 12:00:00 7,6 2,6 18 10 - - ESE 1022,5 10 0,0
12.12.2018 11:00:00 7,9 2,0 16 9 - - SE 1022,4 10 0,0
12.12.2018 10:00:00 7,9 2,9 0 0 - - SE 1022,6 10 0,0
12.12.2018 09:00:00 7,9 4,2 21 11 - - SE 1022,7 10 0,0
12.12.2018 08:00:00 8,0 4,3 21 11 - - SE 1022,5 10 0,0
12.12.2018 07:00:00 8,4 4,9 22 12 - - SE 1022,1 - 0,0
12.12.2018 06:00:00 8,5 4,3 21 11 - - SSE 1021,6 - 0,0
12.12.2018 05:00:00 8,8 4,7 21 11 - - SSE 1021,6 - 0,0
12.12.2018 04:00:00 9,0 5,3 18 10 - - SSE 1021,9 - 0,0
12.12.2018 03:00:00 9,1 5,3 21 11 - - SSE 1022,0 - 0,0
12.12.2018 02:00:00 9,3 5,3 18 10 - - SSE 1022,1 - 0,0
12.12.2018 01:00:00 9,3 5,5 18 10 - - S 1022,0 - 0,0
12.12.2018 00:00:00 9,1 5,6 18 10 48 26 SSE 1022,4 - 0,0
11.12.2018 23:00:00 8,9 5,1 18 10 - - SSE 1022,1 - 0,0
11.12.2018 22:00:00 8,8 4,9 16 9 - - SE 1022,2 - 0,0
11.12.2018 21:00:00 9,1 5,4 13 7 - - SE 1022,6 - 0,0
11.12.2018 20:00:00 9,3 5,4 15 8 - - SSE 1022,7 10 0,0
11.12.2018 19:00:00 8,2 6,5 8 4 - - ESE 1023,0 10 0,0
11.12.2018 18:00:00 5,2 4,1 8 4 - - E 1023,1 10 0,0
11.12.2018 17:00:00 6,3 4,2 9 5 - - ENE 1023,2 10 0,0
11.12.2018 16:00:00 7,7 4,4 9 5 - - ESE 1023,2 - 0,0
11.12.2018 15:00:00 9,0 5,4 11 6 - - ESE 1023,5 10 -
11.12.2018 14:00:00 9,2 6,6 11 6 - - ESE 1024,1 10 0,0
11.12.2018 13:00:00 9,6 7,1 11 6 - - ESE 1024,4 10 0,0
11.12.2018 12:00:00 9,5 8,3 9 5 - - E 1024,9 10 0,0
11.12.2018 11:00:00 4,8 4,4 9 5 - - N 1025,8 10 0,0
11.12.2018 10:00:00 1,8 1,5 11 6 - - N 1025,9 10 0,0
11.12.2018 09:00:00 0,6 0,4 11 6 - - N 1025,8 10 0,0
11.12.2018 08:00:00 1,0 0,7 13 7 - - N 1026,2 10 0,0
11.12.2018 07:00:00 0,4 0,1 11 6 - - N 1026,2 - 0,0
11.12.2018 06:00:00 0,9 0,5 11 6 - - N 1026,1 - 0,0
11.12.2018 05:00:00 0,4 0,1 11 6 - - N 1026,6 - 0,0

tt = Température de l'air
td = dewpoint
ff = Vitesse du vent
fx = gusts
dd = Direction du vent
ppp = reduced air pressure
vv = visibility
rr = Quantités de précipitations

stations d'obs. à proximité